Weather in Zobnino

Russia / Ivanovo Oblast     57°12′04″N   42°36′12″E
temp.,
°C
wind,
m/s
gust,
m/s
humid.,
%
clouds,
%
prec.,
mm/h
press.,
hPa
HPBL,
m
24 july, sat
sat2400:00+10nw38975 0.0 1006191
03:00+9nw2798100 0.0 1007155
06:00+11nnw2592100 0.1 1009181
09:00+14n2381100 0.6 1010316
12:00+17nnw3454100 0.5 10111500
15:00+18nne3445100 0.6 10121065
18:00+18sse114960 0.0 1014301
21:00+13ene1162100 0.0 101516
25 july, sun
sun2500:00+13e015998 0.0 101711
03:00+12w2363100 0.0 101875
06:00+13sw236486 0.0 1019103
09:00+18wsw344384 0.0 1020673
12:00+21w453284 0.0 10202443
15:00+22w353175 0.0 10202511
18:00+20nnw1149100 0.0 102028
21:00+17wsw225180 0.0 102125
26 july, mon
mon2600:00+15wnw245696 0.0 102293
03:00+15w2255100 0.0 102225
06:00+15sw2462100 0.0 102399
09:00+20w3447100 0.0 1023601
12:00+23w353796 0.0 10231989
15:00+23w453997 0.0 10211693
18:00+23wsw254345 0.0 1021617
21:00+17wsw226161 0.0 102134
27 july, tue
tue2700:00+15w3668100 0.0 1021106
03:00+14wnw25737 0.1 102188
06:00+15nnw257510 0.0 1021156
09:00+22n235416 0.0 1021659
12:00+26wnw24375 0.0 10211967
15:00+27wnw363532 0.0 10192262
18:00+16se359164 0.9 101997
21:00+15sw239474 1.3 102057
28 july, wed
wed2800:00+15sw22925 0.0 101914
03:00+14wsw229556 0.0 101935
06:00+16sw249111 0.0 1018109
09:00+23wsw365546 0.0 1016533
12:00+28w4735100 0.0 10142691
15:00+25wsw375017 0.1 1013311
18:00+25w37514 0.1 1012848
21:00+21wsw26635 0.1 1011135